This is the latest recevied weather packets stored in our database for station/object UR7D-12. If no packets are shown the sender has not sent any weather packets the latest 10 day(s).
| Time | Temp. | Humidity | Pressure | Rain* | Wind** | Luminosity | Snow |
|---|---|---|---|---|---|---|---|
| 1777562921 | 13.33° C | 31% | 997.1 hPa | 0 mm | - | - | - |
| 1777562620 | 13.33° C | 29% | 997.1 hPa | 0 mm | - | - | - |
| 1777562320 | 13.89° C | 29% | 997 hPa | 0 mm | - | - | - |
| 1777561419 | 13.89° C | 29% | 996.9 hPa | 0 mm | - | - | - |
| 1777559918 | 13.89° C | 28% | 996.9 hPa | 0 mm | - | - | - |
| 1777559617 | 13.89° C | 28% | 996.8 hPa | 0 mm | - | - | - |
| 1777559317 | 14.44° C | 28% | 996.9 hPa | 0 mm | - | - | - |
| 1777559017 | 14.44° C | 27% | 996.8 hPa | 0 mm | - | - | - |
| 1777558717 | 13.89° C | 27% | 996.8 hPa | 0 mm | - | - | - |
| 1777558116 | 13.89° C | 26% | 997.1 hPa | 0 mm | - | - | - |
| 1777557816 | 13.89° C | 28% | 997.1 hPa | 0 mm | - | - | - |
| 1777557515 | 13.89° C | 28% | 997.3 hPa | 0 mm | - | - | - |
| 1777556915 | 13.89° C | 29% | 997.3 hPa | 0 mm | - | - | - |
| 1777556615 | 13.89° C | 28% | 997.3 hPa | 0 mm | - | - | - |
| 1777556314 | 13.89° C | 30% | 997.5 hPa | 0 mm | - | - | - |
| 1777555714 | 13.33° C | 29% | 997.6 hPa | 0 mm | - | - | - |
| 1777555113 | 12.78° C | 29% | 997.8 hPa | 0 mm | - | - | - |
| 1777554513 | 12.78° C | 31% | 997.8 hPa | 0 mm | - | - | - |
| 1777553912 | 13.33° C | 31% | 997.8 hPa | 0 mm | - | - | - |
| 1777553011 | 13.89° C | 28% | 997.9 hPa | 0 mm | - | - | - |
| 1777552411 | 13.33° C | 30% | 997.9 hPa | 0 mm | - | - | - |
| 1777552110 | 13.33° C | 28% | 998.1 hPa | 0 mm | - | - | - |
| 1777551810 | 13.33° C | 27% | 998.1 hPa | 0 mm | - | - | - |
| 1777551510 | 13.89° C | 27% | 998.1 hPa | 0 mm | - | - | - |
| 1777551210 | 13.89° C | 30% | 998.2 hPa | 0 mm | - | - | - |
* Rain latest hour (hover to see other rain measurements)
** Current wind speed in m/s (hover to see current wind gust speed)